Regional Weather Roundup
Issued by NWS

Home | Current Version | Previous Version | Graphics & Text | Print | Product List | Glossary Off
Versions: 1 2 3 4 5 6 7 8 9 10 11 12 13 14 15 16 17 18 19 20 21 22 23 24 25 26 27 28 29 30 31 32 33 34 35 36 37 38 39 40 41 42 43 44 45 46 47 48 49 50

000
ASUS43 KMKX 181000
RWRWI

WISCONSIN REGIONAL WEATHER ROUNDUP
NATIONAL WEATHER SERVICE MILWAUKEE/SULLIVAN WI
400 AM CST THU DEC 18 2014

NOTE: "FAIR" INDICATES FEW OR NO CLOUDS BELOW 12,000 FEET WITH NO
SIGNIFICANT WEATHER AND/OR OBSTRUCTIONS TO VISIBILITY.

WIZ001-002-006>008-014>016-023>028-181100-
NORTHWEST WISCONSIN

CITY           SKY/WX    TMP DP  RH WIND       PRES   REMARKS
SUPERIOR ARPT  CLOUDY    19  17  91 CALM      30.35R
ASHLAND        CLOUDY    23  20  88 CALM      30.32F
HAYWARD        CLOUDY    20  16  84 N3        30.29S
SIREN          CLOUDY    18  15  87 CALM      30.32F
CUMBERLAND     CLOUDY    19  16  86 N3        30.28F
RICE LAKE      CLOUDY    22  18  84 N3        30.31S
CHETEK         CLOUDY    21  17  84 CALM      30.30S
LADYSMITH      CLOUDY    23  19  87 N5        30.29S WCI  16
EAU CLAIRE     CLOUDY    21  16  81 W3        30.30S
MENOMONIE      CLOUDY    21  17  84 SW5       30.32S WCI  15
NEW RICHMOND   FLURRIES  19  17  93 W3        30.32S
OSCEOLA        FLURRIES  19  16  90 CALM      30.35S
$$

WIZ003>005-009-010-017-018-181100-
NORTH CENTRAL WISCONSIN

CITY           SKY/WX    TMP DP  RH WIND       PRES   REMARKS
MANITOWISH WTR CLOUDY    20  18  91 NE5       30.25S WCI  13
ARBOR VITAE    CLOUDY    22  19  87 NE6       30.25S WCI  14
WOODRUFF       CLOUDY    22  19  87 NE6       30.25S WCI  14
RHINELANDER    CLOUDY    20  17  88 VRB6      30.23F WCI  12
EAGLE RIVER    CLOUDY    20  19  94 NE8       30.24S WCI  11
LAND O LAKES   CLOUDY    21  18  90 NE5       30.25S WCI  14
PHILLIPS       CLOUDY    20  18  91 NE7       30.25F WCI  12
TOMAHAWK       CLOUDY    22  18  87 CALM      30.25S
MEDFORD        CLOUDY    21  18  88 NE5       30.24R WCI  14
MERRILL        CLOUDY    23  20  89 NE7       30.24F WCI  14
$$

WIZ029-030-035-036-043>047-181100-
CENTRAL WISCONSIN

CITY           SKY/WX    TMP DP  RH WIND       PRES   REMARKS
WAUSAU         CLOUDY    23  19  85 N7        30.23F WCI  15
MOSINEE        CLOUDY    23  21  93 NE8       30.25S WCI  14
MARSHFIELD     CLOUDY    22  17  81 NW6       30.25S WCI  14
STEVENS POINT  CLOUDY    22  19  88 CALM      30.26R
WAUPACA        CLOUDY    26  20  77 W3        30.26S
WAUTOMA        NOT AVBL
WISC RAPIDS    CLOUDY    22  16  78 W3        30.28S
CAMP DOUGLAS   NOT AVBL
$$

WIZ011>013-019>022-031-037>040-048>050-181100-
NORTHEAST WISCONSIN

CITY           SKY/WX    TMP DP  RH WIND       PRES   REMARKS
ANTIGO         CLOUDY    22  19  90 N9        30.22F WCI  11
SHAWANO        CLOUDY    28  23  80 N5        30.26S WCI  23
OCONTO         CLOUDY    27  23  84 N8        30.26F WCI  19
STURGEON BAY   CLOUDY    27  19  74 N10       30.25F WCI  17
GREEN BAY      CLOUDY    27  22  81 N9        30.24F WCI  18
MANITOWOC      NOT AVBL
APPLETON       CLOUDY    27  21  80 NW6       30.24F WCI  20
CLINTONVILLE   CLOUDY    28  21  74 N6        30.26S WCI  22
OSHKOSH        CLOUDY    24  18  77 W6        30.25S WCI  17
$$

WIZ032>034-041-042-053>061-181100-
SOUTHWEST WISCONSIN

CITY           SKY/WX    TMP DP  RH WIND       PRES   REMARKS
LA CROSSE      CLOUDY    21  14  74 N3        30.32S
SPARTA         CLOUDY    20  15  78 CALM      30.31S
VIROQUA        MOCLDY    16  14  92 CALM      30.26R
BOSCOBEL       CLEAR     13   9  84 CALM      30.31S
PRAIRIE DU CHI CLEAR     15  12  89 CALM      30.31S
PLATTEVILLE    PTCLDY    16  13  89 CALM      30.28S
$$

WIZ056-057-062-063-064-067-068-181100-
SOUTH CENTRAL WISCONSIN

CITY           SKY/WX    TMP DP  RH WIND       PRES   REMARKS
REEDSBURG      CLOUDY    20  16  85 CALM      30.28R
BARABOO/DELLS  CLOUDY    20  16  83 CALM      30.27S
LONE ROCK      NOT AVBL
MINERAL POINT  CLEAR     18  14  86 CALM      30.25F
MADISON        CLEAR     16  12  84 NW3       30.26S
MIDDLETON      CLEAR     19  14  84 NW3       30.27S
WATERTOWN      CLOUDY    20  16  87 NW3       30.26S
MONROE         CLEAR     18  14  86 NW3       30.25S
JANESVILLE     CLEAR     19  14  79 CALM      30.27S
$$

WIZ051-052-058>065-066-070>072-181100-
SOUTHEAST WISCONSIN

CITY           SKY/WX    TMP DP  RH WIND       PRES   REMARKS
MILWAUKEE      CLEAR     20  13  74 W6        30.26S WCI  12
WAUKESHA       CLOUDY    18  14  86 W5        30.26F WCI  11
MILWAUKEE/TIMM CLEAR     19  14  79 W6        30.26F WCI  11
RACINE         CLEAR     18  13  80 CALM      30.28S
BURLINGTON     CLEAR     16  12  86 CALM      30.26S
KENOSHA        CLEAR     16  13  88 CALM      30.26S
FOND DU LAC    CLOUDY    24  17  74 NW3       30.25F
SHEBOYGAN      CLOUDY    25  19  78 W7        30.24F WCI  17
WEST BEND      CLOUDY    23  19  86 W5        30.24F WCI  17
JUNEAU         CLOUDY    21  17  84 NW3       30.26F
$$

LSZ147-162-181100-
LAKE SUPERIOR

STATION/POSITION TIME  TEMP    WIND        PRES    WAVE
                       AIR SEA DIR/SP/G            HT/PER
                 (UTC) (F)     (DEG/KT/KT) (MB)    (FT/S)
DEVILS ISLAND    0900   26      80/  3/  5 1028.7R
PORT WING        0900   25      50/  8/  9 1027.4
SAXON HARBOR     0940   26        CALM     1026.4F
$$

LMZ867-665-643>646-181100-
LAKE MICHIGAN

STATION/POSITION TIME  TEMP    WIND        PRES    WAVE
                       AIR SEA DIR/SP/G            HT/PER
                 (UTC) (F)     (DEG/KT/KT) (MB)    (FT/S)
CHAMBERS ISLAND  0900   28     340/ 12/ 17 1025.1R
NORTHPORT PIER   0900   29     350/ 16/ 21 1024.0R
SISTER BAY       0913          360/ 14/ 18   N/A
ALGOMA LAKESHORE 0914          330/  8/  9   N/A
KEWAUNEE LAKESHO 0900   28     320/  6/ 11 1023.4F
SHEBOYGAN LAKESH 0900   25 34  290/  8/  9 1025.6F
PORT WASHINGTON  0900   24     300/  7/  9 1025.4S
MILWAUKEE LAKESH 0900   21     300/ 11/ 13   N/A
KENOSHA   LAKESH 0900   20     320/  5/ 10 1024.7F
$$

TC  - TEMPERATURE IN CELSIUS
VSB - VISIBILITY IN STATUTE MILES
WCI - WIND CHILL INDEX
HX  - HEAT INDEX



USA.gov is the U.S. government's official web portal to all federal, state and local government web resources and services.